| time (UTC) | temp F | wind direction | speed knots | gust knots | rain 1hr in | rain 24hr in | rain mn in | humidity % | barometer mb |
| 20260504184538 | 82 | 159 | 7.8 | 12.2 | 0.00 | 0.00 | 0.00 | 49 | 1013.8 |
| 20260504183037 | 80 | 175 | 5.2 | 12.2 | 0.00 | 0.00 | 0.00 | 51 | 1013.9 |
| 20260504181536 | 80 | 148 | 5.2 | 11.3 | 0.00 | 0.00 | 0.00 | 51 | 1014.1 |
| 20260504180037 | 81 | 171 | 4.3 | 12.2 | 0.00 | 0.00 | 0.00 | 52 | 1014.3 |
| 20260504174536 | 80 | 123 | 5.2 | 11.3 | 0.00 | 0.00 | 0.00 | 48 | 1014.4 |
| 20260504173035 | 80 | 93 | 7.8 | 15.6 | 0.00 | 0.00 | 0.00 | 50 | 1014.7 |
| 20260504171533 | 79 | 162 | 5.2 | 20.9 | 0.00 | 0.00 | 0.00 | 54 | 1014.9 |
| 20260504081504 | 60 | 161 | 0.0 | 0.0 | 0.00 | 0.00 | 0.00 | 74 | 1016.5 |
| 20260504050703 | 64 | 161 | 0.0 | 1.7 | 0.00 | 0.00 | 0.00 | 63 | 1018.1 |
| 20260504044504 | 65 | 161 | 0.0 | 1.7 | 0.00 | 0.00 | 0.00 | 64 | 1018.4 |
| 20260504043002 | 65 | 161 | 0.0 | 1.7 | 0.00 | 0.00 | 0.00 | 62 | 1018.4 |
| 20260504041502 | 65 | 161 | 2.6 | 4.3 | 0.00 | 0.00 | 0.00 | 62 | 1018.4 |
| 20260504040002 | 66 | 161 | 0.0 | 2.6 | 0.00 | 0.00 | 0.00 | 62 | 1018.3 |
| 20260504034502 | 67 | 161 | 0.0 | 2.6 | 0.00 | 0.00 | 0.00 | 56 | 1018.4 |
| 20260504033003 | 68 | 159 | 0.9 | 4.3 | 0.00 | 0.00 | 0.00 | 54 | 1018.4 |
| 20260504031502 | 68 | 148 | 1.7 | 4.3 | 0.00 | 0.00 | 0.00 | 54 | 1018.4 |
| 20260504031402 | 68 | 138 | 0.9 | 2.6 | 0.00 | 0.00 | 0.00 | 55 | 1018.2 |
| 20260504024506 | 69 | 137 | 1.7 | 4.3 | 0.00 | 0.00 | 0.00 | 53 | 1018.1 |
| 20260504022933 | 69 | 176 | 1.7 | 4.3 | 0.00 | 0.00 | 0.00 | 53 | 1018.0 |
| 20260504021431 | 69 | 176 | 1.7 | 2.6 | 0.00 | 0.00 | 0.00 | 52 | 1017.9 |
| 20260504015933 | 70 | 176 | 1.7 | 6.1 | 0.00 | 0.00 | 0.00 | 51 | 1017.7 |
| 20260504014432 | 71 | 173 | 1.7 | 2.6 | 0.00 | 0.00 | 0.00 | 50 | 1017.7 |
| 20260504012932 | 71 | 176 | 0.9 | 2.6 | 0.00 | 0.00 | 0.00 | 49 | 1017.6 |
| 20260504011432 | 72 | 178 | 0.9 | 2.6 | 0.00 | 0.00 | 0.00 | 47 | 1017.5 |
| 20260504005934 | 73 | 162 | 1.7 | 4.3 | 0.00 | 0.00 | 0.00 | 46 | 1017.5 |
| 20260504004430 | 74 | 159 | 1.7 | 4.3 | 0.00 | 0.00 | 0.00 | 45 | 1017.5 |
| 20260504002927 | 74 | 166 | 1.7 | 6.1 | 0.00 | 0.00 | 0.00 | 43 | 1017.6 |
| 20260504001427 | 75 | 142 | 2.6 | 7.8 | 0.00 | 0.00 | 0.00 | 42 | 1017.6 |
| 20260504000632 | 76 | 157 | 2.6 | 6.1 | 0.00 | 0.00 | 0.00 | 40 | 1017.6 |
| 20260503234423 | 77 | 179 | 1.7 | 6.1 | 0.00 | 0.00 | 0.00 | 39 | 1017.6 |
| 20260503232924 | 77 | 130 | 2.6 | 7.8 | 0.00 | 0.00 | 0.00 | 37 | 1017.7 |
| 20260503231419 | 78 | 110 | 3.5 | 7.8 | 0.00 | 0.00 | 0.00 | 37 | 1017.8 |
| 20260503225914 | 78 | 123 | 2.6 | 6.1 | 0.00 | 0.00 | 0.00 | 36 | 1017.8 |
| 20260503224411 | 78 | 161 | 1.7 | 4.3 | 0.00 | 0.00 | 0.00 | 36 | 1018.0 |
| 20260503222909 | 78 | 99 | 4.3 | 9.6 | 0.00 | 0.00 | 0.00 | 36 | 1018.2 |
| 20260503221407 | 79 | 99 | 4.3 | 7.8 | 0.00 | 0.00 | 0.00 | 36 | 1018.4 |
| 20260503215908 | 78 | 24 | 1.7 | 6.1 | 0.00 | 0.00 | 0.00 | 35 | 1018.3 |
| 20260503214405 | 79 | 96 | 3.5 | 7.8 | 0.00 | 0.00 | 0.00 | 35 | 1018.5 |
| 20260503212906 | 79 | 175 | 2.6 | 6.1 | 0.00 | 0.00 | 0.00 | 33 | 1018.8 |
| 20260503211404 | 80 | 140 | 2.6 | 7.8 | 0.00 | 0.00 | 0.00 | 33 | 1019.0 |
| 20260503205906 | 80 | 110 | 3.5 | 7.8 | 0.00 | 0.00 | 0.00 | 36 | 1019.1 |
| 20260503204406 | 79 | 155 | 2.6 | 6.1 | 0.00 | 0.00 | 0.00 | 37 | 1019.5 |
| 20260503202907 | 80 | 178 | 2.6 | 9.6 | 0.00 | 0.00 | 0.00 | 34 | 1019.7 |
| 20260503201403 | 80 | 66 | 2.6 | 9.6 | 0.00 | 0.00 | 0.00 | 38 | 1019.9 |
| 20260503195907 | 79 | 94 | 2.6 | 11.3 | 0.00 | 0.00 | 0.00 | 35 | 1020.2 |
| 20260503194404 | 80 | 125 | 3.5 | 7.8 | 0.00 | 0.00 | 0.00 | 35 | 1020.5 |
| 20260503192906 | 80 | 164 | 1.7 | 9.6 | 0.00 | 0.00 | 0.00 | 36 | 1020.7 |
| 20260503191403 | 81 | 121 | 2.6 | 9.6 | 0.00 | 0.00 | 0.00 | 34 | 1020.9 |